TimeEST,TemperatureF,Dew PointF,Humidity,Sea Level PressureIn,VisibilityMPH,Wind Direction,Wind SpeedMPH,Gust SpeedMPH,PrecipitationIn,Events,Conditions,WindDirDegrees,DateUTC
12:15 AM,27.5,22.3,81,29.98,10.0,West,10.4,17.3,N/A,,Overcast,270,2013-12-16 05:15:00
12:35 AM,27.5,22.5,81,29.99,10.0,West,15.0,27.6,N/A,,Overcast,280,2013-12-16 05:35:00
12:55 AM,27.5,22.6,82,29.99,10.0,West,12.7,20.7,N/A,,Overcast,280,2013-12-16 05:55:00
1:15 AM,27.7,22.6,81,29.99,10.0,West,13.8,26.5,N/A,,Overcast,280,2013-12-16 06:15:00
1:35 AM,27.7,22.8,82,29.98,10.0,WNW,16.1,21.9,N/A,,Overcast,290,2013-12-16 06:35:00
1:55 AM,27.9,23.0,82,30.00,10.0,West,16.1,25.3,N/A,,Overcast,280,2013-12-16 06:55:00
2:15 AM,28.0,23.0,81,29.99,10.0,West,17.3,25.3,N/A,,Overcast,280,2013-12-16 07:15:00
2:35 AM,28.4,23.0,80,30.00,10.0,West,19.6,26.5,N/A,,Mostly Cloudy,270,2013-12-16 07:35:00
2:55 AM,28.4,23.0,80,30.01,10.0,WNW,12.7,24.2,N/A,,Mostly Cloudy,290,2013-12-16 07:55:00
3:15 AM,28.4,23.0,80,30.01,10.0,West,13.8,28.8,N/A,,Overcast,280,2013-12-16 08:15:00
3:35 AM,28.4,22.8,80,30.01,10.0,WNW,20.7,26.5,N/A,,Overcast,300,2013-12-16 08:35:00
3:55 AM,28.4,22.5,78,30.01,10.0,WNW,12.7,19.6,N/A,,Mostly Cloudy,300,2013-12-16 08:55:00
4:15 AM,29.3,22.1,75,30.00,10.0,WNW,19.6,29.9,N/A,,Scattered Clouds,290,2013-12-16 09:15:00
4:35 AM,29.1,22.1,75,30.00,10.0,WNW,18.4,29.9,N/A,,Clear,300,2013-12-16 09:35:00
4:55 AM,28.8,21.7,75,30.01,10.0,WNW,16.1,24.2,N/A,,Clear,290,2013-12-16 09:55:00
5:15 AM,28.8,21.7,75,30.02,10.0,West,9.2,-,N/A,,Clear,280,2013-12-16 10:15:00
5:35 AM,29.3,21.7,73,30.02,10.0,West,5.8,18.4,N/A,,Clear,270,2013-12-16 10:35:00
5:55 AM,28.9,21.9,75,30.02,10.0,West,10.4,17.3,N/A,,Clear,270,2013-12-16 10:55:00
6:15 AM,29.3,21.9,74,30.03,10.0,West,15.0,-,N/A,,Clear,280,2013-12-16 11:15:00
6:35 AM,28.9,21.9,75,30.03,10.0,West,15.0,19.6,N/A,,Clear,280,2013-12-16 11:35:00
6:55 AM,29.1,22.1,75,30.03,10.0,West,17.3,-,N/A,,Clear,280,2013-12-16 11:55:00
7:15 AM,29.7,21.9,73,30.03,10.0,West,17.3,23.0,N/A,,Clear,270,2013-12-16 12:15:00
7:35 AM,30.6,21.7,70,30.04,10.0,West,21.9,29.9,N/A,,Clear,270,2013-12-16 12:35:00
7:55 AM,30.7,21.7,69,30.04,10.0,West,21.9,28.8,N/A,,Clear,280,2013-12-16 12:55:00
8:15 AM,30.7,21.9,70,30.04,10.0,West,23.0,-,N/A,,Clear,280,2013-12-16 13:15:00
8:35 AM,31.1,22.1,69,30.05,10.0,West,21.9,27.6,N/A,,Scattered Clouds,280,2013-12-16 13:35:00
8:55 AM,31.5,22.1,68,30.06,10.0,West,23.0,-,N/A,,Mostly Cloudy,280,2013-12-16 13:55:00
9:15 AM,31.8,22.3,68,30.06,10.0,West,20.7,-,N/A,,Scattered Clouds,280,2013-12-16 14:15:00
9:35 AM,32.2,22.1,66,30.06,10.0,West,17.3,-,N/A,,Mostly Cloudy,270,2013-12-16 14:35:00
9:55 AM,33.6,22.3,63,30.07,10.0,West,19.6,23.0,N/A,,Overcast,280,2013-12-16 14:55:00
10:15 AM,35.1,22.3,60,30.07,10.0,West,18.4,23.0,N/A,,Overcast,270,2013-12-16 15:15:00
10:35 AM,35.8,22.6,59,30.06,10.0,West,23.0,28.8,N/A,,Overcast,280,2013-12-16 15:35:00
10:55 AM,36.0,23.0,59,30.06,10.0,West,23.0,28.8,N/A,,Overcast,280,2013-12-16 15:55:00
11:15 AM,36.5,23.4,59,30.06,10.0,West,23.0,31.1,N/A,,Mostly Cloudy,280,2013-12-16 16:15:00
11:35 AM,38.7,23.5,55,30.06,10.0,West,21.9,28.8,N/A,,Scattered Clouds,270,2013-12-16 16:35:00
11:55 AM,40.1,23.0,51,30.05,10.0,West,18.4,28.8,N/A,,Scattered Clouds,270,2013-12-16 16:55:00
12:15 PM,41.5,22.8,47,30.04,10.0,West,17.3,28.8,N/A,,Clear,270,2013-12-16 17:15:00
12:35 PM,42.4,22.5,45,30.04,10.0,West,15.0,29.9,N/A,,Clear,270,2013-12-16 17:35:00
12:55 PM,42.8,21.9,44,30.02,10.0,West,25.3,31.1,N/A,,Clear,270,2013-12-16 17:55:00
1:15 PM,43.7,21.7,42,30.02,10.0,West,16.1,31.1,N/A,,Clear,260,2013-12-16 18:15:00
1:35 PM,44.4,21.0,39,30.02,10.0,West,15.0,24.2,N/A,,Clear,260,2013-12-16 18:35:00
2:00 PM,45.1,20.5,38,30.03,10.0,West,16.1,20.7,N/A,,Clear,260,2013-12-16 19:00:00
2:15 PM,45.0,20.1,37,30.04,10.0,West,12.7,24.2,N/A,,Clear,260,2013-12-16 19:15:00
2:35 PM,45.7,20.5,37,30.03,10.0,West,15.0,19.6,N/A,,Clear,280,2013-12-16 19:35:00
2:55 PM,46.0,21.0,37,30.04,10.0,WSW,15.0,20.7,N/A,,Clear,250,2013-12-16 19:55:00
3:15 PM,45.5,21.0,38,30.04,10.0,West,15.0,29.9,N/A,,Clear,270,2013-12-16 20:15:00
3:35 PM,45.5,21.4,38,30.04,10.0,West,11.5,23.0,N/A,,Clear,260,2013-12-16 20:35:00
3:55 PM,45.1,21.2,39,30.04,10.0,West,10.4,20.7,N/A,,Clear,270,2013-12-16 20:55:00
4:15 PM,44.8,20.5,38,30.04,10.0,West,12.7,20.7,N/A,,Clear,270,2013-12-16 21:15:00
4:35 PM,44.6,19.4,37,30.05,10.0,West,8.1,-,N/A,,Scattered Clouds,270,2013-12-16 21:35:00
4:55 PM,44.8,18.7,35,30.05,10.0,West,9.2,-,N/A,,Mostly Cloudy,260,2013-12-16 21:55:00
5:15 PM,44.6,18.5,35,30.05,10.0,WSW,4.6,-,N/A,,Scattered Clouds,240,2013-12-16 22:15:00
5:35 PM,44.6,18.0,34,30.05,10.0,WSW,8.1,-,N/A,,Clear,240,2013-12-16 22:35:00
5:55 PM,44.6,18.3,35,30.05,10.0,SW,5.8,-,N/A,,Clear,220,2013-12-16 22:55:00
6:15 PM,44.6,18.5,35,30.06,10.0,WSW,6.9,-,N/A,,Clear,240,2013-12-16 23:15:00
6:35 PM,44.1,19.2,37,30.06,10.0,WSW,6.9,-,N/A,,Clear,240,2013-12-16 23:35:00
6:55 PM,43.7,19.4,38,30.06,10.0,WSW,8.1,16.1,N/A,,Clear,240,2013-12-16 23:55:00
7:15 PM,43.7,19.6,38,30.06,10.0,WSW,6.9,-,N/A,,Clear,240,2013-12-17 00:15:00
7:35 PM,43.5,19.9,39,30.06,10.0,WSW,6.9,-,N/A,,Clear,240,2013-12-17 00:35:00
7:55 PM,43.7,19.9,39,30.06,10.0,SW,4.6,-,N/A,,Clear,230,2013-12-17 00:55:00
8:15 PM,43.7,20.1,39,30.07,10.0,WSW,4.6,-,N/A,,Clear,250,2013-12-17 01:15:00
8:35 PM,42.6,20.3,41,30.07,10.0,WSW,4.6,-,N/A,,Clear,240,2013-12-17 01:35:00
8:55 PM,42.3,21.2,43,30.07,10.0,SW,5.8,-,N/A,,Clear,230,2013-12-17 01:55:00
9:15 PM,42.1,22.5,46,30.07,10.0,West,10.4,23.0,N/A,,Clear,260,2013-12-17 02:15:00
9:40 PM,41.2,24.4,51,30.07,10.0,West,10.4,24.2,N/A,,Clear,270,2013-12-17 02:40:00
9:55 PM,40.5,24.8,54,30.06,10.0,West,15.0,23.0,N/A,,Clear,260,2013-12-17 02:55:00
10:15 PM,39.9,25.7,57,30.06,10.0,WSW,12.7,25.3,N/A,,Clear,250,2013-12-17 03:15:00
10:35 PM,39.2,25.9,59,30.07,10.0,West,10.4,18.4,N/A,,Clear,260,2013-12-17 03:35:00
11:00 PM,38.5,26.6,62,30.06,10.0,West,16.1,21.9,N/A,,Clear,260,2013-12-17 04:00:00
11:15 PM,38.3,26.6,63,30.06,10.0,West,11.5,18.4,N/A,,Clear,260,2013-12-17 04:15:00
11:35 PM,38.5,26.6,62,30.06,10.0,WSW,10.4,21.9,N/A,,Clear,250,2013-12-17 04:35:00
11:55 PM,38.8,26.6,61,30.06,10.0,West,11.5,25.3,N/A,,Clear,260,2013-12-17 04:55:00